Regional Weather Roundup
Issued by NWS

Home | Current Version | Previous Version | Graphics & Text | Print | Product List | Glossary On
Versions: 1 2 3 4 5 6 7 8 9 10 11 12 13 14 15 16 17 18 19 20 21 22 23 24 25 26 27 28 29 30 31 32 33 34 35 36 37 38 39 40 41 42 43 44 45 46 47 48 49 50
000
ASUS44 KMEG 020910
RWRTN
TENNESSEE HOURLY STATE WEATHER ROUNDUP
NATIONAL WEATHER SERVICE MEMPHIS TN
400 AM CDT THU OCT 02 2014

TNZ002-004-019-021-049-052-054-088>092-021000-
WEST TENNESSEE

CITY           SKY/WX    TMP DP  RH WIND       PRES   REMARKS
MEMPHIS INTL   PTCLDY    73  64  73 S9        29.91R
NWS MEMPHIS      N/A     73 N/A N/A MISG        N/A
JACKSON        CLEAR     70  61  73 S7        29.93R
DYERSBURG      CLEAR     70  54  56 SE3       29.92R
UNION CITY     CLEAR     63  61  94 CALM      29.91R
PARIS          CLOUDY    66  57  72 S7        29.94R
HUNTINGDON     CLEAR     65  58  78 SE6       29.93S
LEXINGTON      CLEAR     63  59  88 CALM      29.94S
SAVANNAH       CLEAR     70  63  78 S8        29.96R
$$

TNZ008-025-027-028-033-062-065-066-021000-
NORTH MIDDLE TENNESSEE

CITY           SKY/WX    TMP DP  RH WIND       PRES   REMARKS
NASHVILLE      CLEAR     64  58  80 S3        29.98S
PORTLAND       CLEAR     63  57  82 S7        29.98S
CLARKSVILLE    CLEAR     63  59  87 SE6       29.95R
LEBANON        CLEAR     59  56  89 CALM      29.97F
SMYRNA         CLEAR     62  58  87 CALM      30.00S
MURFREESBORO   CLEAR     61  57  86 CALM      29.99
COOKEVILLE     CLEAR     54  54 100 CALM      30.02S
GALLATIN       CLEAR     60  57  89 CALM      30.00R
CROSSVILLE     CLEAR     59  53  80 CALM      30.08R
$$

TNZ061-075-076-078-094-096-097-021000-
SOUTH MIDDLE TENNESSEE

CITY           SKY/WX    TMP DP  RH WIND       PRES   REMARKS
LEWISBURG      CLEAR     59  56  89 CALM      29.99S
FAYETTEVILLE   CLEAR     64  57  77 S7        30.02S
TULLAHOMA      CLEAR     59  55  88 CALM      30.03S
WINCHESTER     CLEAR     63  57  82 SE6       30.03S
MCMINNVILLE    CLEAR     57  57 100 CALM      30.02S
COLUMBIA       CLEAR    N/A N/A N/A CALM      29.97R
SHELBYVILLE    CLEAR     63  61  94 SE3       30.01S
$$

TNZ017-018-042-046-047-021000-
NORTHEAST TENNESSEE

CITY           SKY/WX    TMP DP  RH WIND       PRES   REMARKS
TRI CITIES     CLEAR     51  49  92 CALM      30.08S FOG
ELIZABETHTON   SUNNY     54  52  94 NE5       30.10R
$$

TNZ012-013-036-069-073-074-021000-
CENTRAL EAST TENNESSEE

CITY           SKY/WX    TMP DP  RH WIND       PRES   REMARKS
KNOXVILLE      CLEAR     58  56  93 CALM      30.05R
OAK RIDGE      CLEAR     57  55  93 CALM      30.07S
GATLINBURG     SUNNY     54  54 100 CALM      30.06R
MORRISTOWN     SUNNY     55  54  94 NE3       30.08R
$$

TNZ083-085-099-021000-
SOUTHEAST TENNESSEE

CITY           SKY/WX    TMP DP  RH WIND       PRES   REMARKS
CHATTANOOGA    CLEAR     62  58  86 CALM      30.05R
$$

SKY/WX REPORTED AS FAIR MEANS FEW OR NO CLOUDS BELOW
12 THOUSAND FEET.



USA.gov is the U.S. government's official web portal to all federal, state and local government web resources and services.